Torna al catalogo

STARLINK-33641

AttivoComunicazioniVLEO
NORAD 63718·PAYLOAD·🇺🇸 United States

Lanciato Apr 28, 2025 da Vandenberg Space Force Base

Loading…

Prossimi Passaggi (prossime 24 ore)

TLE

AggiornatoSource: CelesTrak SupGP

Epoca: Sep 14, 2026, 22:38 UTC

1 63718C 25087X   26257.94354167  .00034071  00000+0  10959-2 0  2575
2 63718  53.1588  59.0528 0001094  76.0075 350.3045 15.31679109    18

Traccia STARLINK-33641 in tempo reale con AllMySat

Download on the App Store